Tracking 19199 objects as of 25-Jun-2018
HD Live streaming from Space Station
objects crossing your sky now

ASTRA 1D

Track ASTRA 1D now!
ASTRA 1D is classified as:


NORAD ID: 23331
Int'l Code: 1994-070A
Perigee: 35,778.6 km
Apogee: 35,808.7 km
Inclination: 8.1 °
Period: 1,436.1 minutes
Semi major axis: 42164 km
RCS: 75.2376 m2 (large)
Launch date: November 1, 1994
Source: Luxembourg (LUXE)
Launch site: FRENCH GUIANA (FRGUI)

Primarily backup for Astra 1B and 1C; 18 Ku-band transponders; continental Europe.
aabbcc
Your satellite tracking list
Your tracking list is empty




NASA's NSSDC Master Catalog

Two Line Element Set (TLE):
1 23331U 94070A   18175.46021260 -.00000279 +00000-0 +00000-0 0  9994
2 23331 008.1057 046.7084 0003572 044.9445 273.5828 01.00272028086934
Source of the keplerian elements: AFSPC